Погода в Гиганте

Погода в Гиганте : погода сейчас, прогноз погоды и архив. Всё, что Вы хотите узнать о погоде в Гиганте!

Поиск расширенной информации на нашем сайте:

Другие новости

Новости СМИ2

Главная страница сайта

Новости сайта

03.07.2017

Напоминаем, что на нашем специализированном сайте Метеоцентр.Азия вы можете получить высокодетализированные автоматические прогнозы погоды по пунктам России, СНГ и мира в авиационном формате (включающие направление и скорость ветра, видимость, явления погоды, количество и форму облачности, нижнюю и верхнюю границу облачности).

Рекомендуем: приворот вуду, услуги черной ведьмы Софии Драгош

Погода в Гиганте - сегодня

Время (UTC), дата Ветер
(°,м/с) 
Видим.   Явления Облачность Т
(°С)
Тd
(°С)
f(%) Тe
(°С)
Pmin
(гПа)
dP
(гПа)
Po
(мм)
O2
(г/м3)
Тmin Tmax R s Состояние
почвы
15 17.10.17 280 (З) 4{12}  20000 м    10/10 600 м 
[Sc diur, vesp]
+14.2 +7.3 63 +14  1017.7  0.6  756  288    +15.3       
18 17.10.17 310 (СЗ) 2{10}  4000 м  слаб. ливневой дождь  10/10 600 м кучево-дожд. 
[Cb cap]
+12.1 +9.6 85 +12  1019.5  1.8  758  291           
21 17.10.17 280 (З) 20000 м  {ливн. осадки}  9/9 600 м кучево-дожд. 
[Cb cap]
+11.5 +8.9 84 +12  1021  1.5  759  292           
00 18.10.17 300 (СЗ) 20000 м  {ливн. осадки}  10/10 600 м 
[Sc diur, vesp]
+12.2 +9.4 83 +12  1021.4  0.5  759  291           
03 18.10.17 320 (СЗ) 4000 м  дымка  10/10 600 м 
[Sc]
+10.3 +9.1 92 +11  1023  1.5  760  294  +9.8    0.0    сухая 
06 18.10.17 тихо ()   20000 м    9/6 600 м верхняя 
[Sc diur, vesp|Cs]
+12.1 +10 87 +13  1024.4  1.4  761  292  +9.1         
09 18.10.17 200 (Ю) 20000 м    9/0 верхняя 
[Cs]
+15.5 +8.5 63 +16  1023.7  -0.6  761  289           
12 18.10.17 220 (ЮЗ) 20000 м    9/0 верхняя 
[Cs]
+16.9 +8 56 +18  1022.7  -0.9  760  287           
15 18.10.17 тихо ()   20000 м    10/0 средняя 
[Ac As]
+11.1 +9.1 87 +11  1022.8  0.1  760  293    +17.1       
18 18.10.17 260 (З) 4000 м  дымка  5/0 верхняя 
[Ci fib]
+9.3 +8.3 93 +10  1022.7  -0.2  760  295           
21 18.10.17 240 (ЮЗ) 1000 м  дымка  10/10 300 м 
[St]
+11.8 +11.1 95 +14  1022.1  -0.5  759  291           
00 19.10.17 230 (ЮЗ) 1000 м  дымка  10/10 300 м 
[St]
+11.4 +10.8 96 +14  1021.8  -0.3  759  292           
03 19.10.17 250 (З) 1000 м  дымка  9/9 300 м 
[Sc diur, vesp]
+11.6 +11.1 97 +15  1021.5  -0.3  759  291  +8.8        сухая 
06 19.10.17 250 (З) 4000 м  дымка{туман}  ясно 
+13.5 +12.4 93 +18  1021.7  -0.3  759  289           
09 19.10.17 240 (ЮЗ) 20000 м    3/3 600 м 
[Sc]
+17.3 +9.4 60 +18  1020.7  -0.9  759  286           
12 19.10.17 240 (ЮЗ) 20000 м    ясно 
+18.5 +8.7 53 +19  1019.2  -0.9  758  284           
15 19.10.17 260 (З) 20000 м    ясно 
+14.6 +8.8 68 +16  1019.2  0.1  757  288    +18.6       
18 19.10.17 250 (З) 20000 м    8/8 600 м 
[Sc]
+12.5 +9.3 81 +14  1019.2  0.1  757  290           
21 19.10.17 250 (З) 4000 м  дымка  ясно 
+9.3 +8.4 94 +10  1018.7  -0.6  757  293           
00 20.10.17 270 (З) 4000 м  дымка  10/10 600 м 
[Sc]
+12.7 +11.1 90 +16  1018.4  -0.2  757  289           
03 20.10.17 310 (СЗ) 20000 м    10/10 600 м 
[Sc]
+12.5 +10 85 +14  1018.7  0.3  757  290  +9.2        сухая 
06 20.10.17 240 (ЮЗ) 20000 м    10/10 600 м 
[Sc]
+12.5 +10.2 86 +15  1019.3  0.6  757  290           
09 20.10.17 250 (З) 20000 м    10/10 600 м 
[Sc]
+13 +10.9 87 +16  1019.1  0.1  757  289           
12 20.10.17 320 (СЗ) 20000 м    10/10 600 м 
[Sc]
+13.2 +11 87 +16  1018.7  -0.5  757  289           
15 20.10.17 220 (ЮЗ) 20000 м    10/10 600 м 
[Sc]
+12.8 +11.2 90 +17  1019.2  0.5  757  289    +13.3       
Время (UTC), дата Ветер
(°,м/с) 
Видим.   Явления Облачность Т
(°С)
Тd
(°С)
f(%) Тe
(°С)
Pmin
(гПа)
dP
(гПа)
Po
(мм)
O2
(г/м3)
Тmin Tmax R s Состояние
почвы

Для получения пояснительной информации подведите курсор к названию столбца.

ПОГОДА в Гиганте - архив

Всё, что Вы хотите узнать о погоде в Гиганте - удобно и подробно!

Выберите нужную дату (начиная с 1 января 2015* года) и нажмите кнопку "Найти".
Будут отображены архивные сводки погоды по пункту Гигант, начиная с указанной даты.


Отображать данные в формате CSV (для использования в таблицах Excel)


Внимание! Наш архив погоды предназначен исключительно для личного некоммерческого использования в познавательных целях. Если Вам необходимы официальные справки о состоянии погоды (для производственных, юридических, коммерческих и т.п. целей), обращайтесь в органы Росгидромета.

*Примечание: данная дата относится к архиву по метеостанциям СССР (Россия, СНГ, Балтия).
Архив по метеостанциям Зарубежной Европы и Азии (кроме Китая) хранится 10 дней, по другим регионам земного шара (Китай, Африка, Америка, Австралия, Океания) - 1 день.

Гигант - район местоположения метеостанции


Название, широта, долгота, высота метеостанции:
Гигант 46.5°ш. 41.3°д. 79 м над ур. моря [Российская Федерация]

Дополнительная информация

В oтличие oт бoльшинства пoгoдных сайтoв мы публикуем пoдрoбную метеoинфoрмацию в детальнoм прoфессиoнальнoм фoрмате.

Характеристики температуры и влажнoсти вoздуха измеряются на высoте 2 м в тени вдали oт зданий и деревьев.
Скoрoсть ветра измеряется на высoте 10 м (на урoвне рoста челoвека скoрoсть ветра ниже в 1.5-2 раза). Если метеoстанция нахoдится в гoрoде или в лесу, тo скoрoсть ветра занижена на 2-4 м/с пo сравнению с oткрытым местoм. Скoрoсть ветра над акватoриями крупных рек и oзёр, а также на вершинах хoлмoв на 2-5 м/с выше, чем в oбычных услoвиях.
Атмoсфернoе давление в разных тoчках местнoсти мoжет значительнo oтличаться oт давления на метеoстанции, в зависимoсти oт услoвий рельефа (при пoдъёме на 10 м давление пoнижается примернo на 1 мм рт.ст.).